When you browse on this site, cookies collect data to enhance your experience and personalize the content and advertising you see.
Visit our Privacy Policy to learn more. By continuing to use the site, you agree to this use of cookies and data.
  • In Netherlands
  • List of Countries
  • For 7 days
  • Water Temperature
  • Weather Map
  • Weather Widgets
  • user-avatar
    Login

    Hourly Weather Kalkni

    Today, 19 October, Saturday

    Time Temperature Precipitation Wind Pressure Humidity
    00:00 +12°C° 0 mm 1 mps 665 mmHg 59%
    01:00 +12°C° 0 mm 1 mps 665 mmHg 59%
    02:00 +12°C° 0 mm 1 mps 664 mmHg 58%
    03:00 +12°C° 0 mm 1 mps 664 mmHg 57%
    04:00 +12°C° 0 mm 1 mps 664 mmHg 56%
    05:00 +11°C° 0 mm 1 mps 665 mmHg 55%
    06:00 +11°C° 0 mm 1 mps 665 mmHg 54%
    07:00 +13°C° 0 mm 1 mps 665 mmHg 51%
    08:00 +15°C° 0 mm 1 mps 666 mmHg 48%
    09:00 +18°C° 0 mm 1 mps 667 mmHg 45%
    10:00 +18°C° 0 mm 1 mps 667 mmHg 46%
    11:00 +18°C° 0 mm 2 mps 667 mmHg 47%
    12:00 +19°C° 0 mm 2 mps 667 mmHg 48%
    13:00 +18°C° 0.1 mm 2 mps 667 mmHg 53%
    14:00 +18°C° 0.1 mm 2 mps 667 mmHg 57%
    15:00 +17°C° 0.1 mm 2 mps 666 mmHg 62%
    16:00 +16°C° 0.2 mm 1 mps 666 mmHg 69%
    17:00 +14°C° 0.2 mm 1 mps 666 mmHg 76%
    18:00 +12°C° 0.2 mm 0 mps 666 mmHg 84%
    19:00 +11°C° 0 mm 0 mps 666 mmHg 83%
    20:00 +11°C° 0 mm 0 mps 666 mmHg 82%
    21:00 +11°C° 0 mm 0 mps 666 mmHg 81%
    22:00 +11°C° 0 mm 0 mps 666 mmHg 80%
    23:00 +11°C° 0 mm 1 mps 666 mmHg 79%

    Tomorrow, 20 October, Sunday

    Time Temperature Precipitation Wind Pressure Humidity
    00:00 +11°C° 0 mm 1 mps 666 mmHg 77%
    01:00 +11°C° 0 mm 1 mps 666 mmHg 76%
    02:00 +11°C° 0 mm 1 mps 666 mmHg 76%
    03:00 +10°C° 0 mm 0 mps 666 mmHg 75%
    04:00 +10°C° 0 mm 1 mps 666 mmHg 74%
    05:00 +10°C° 0 mm 1 mps 667 mmHg 74%
    06:00 +10°C° 0 mm 1 mps 667 mmHg 73%
    07:00 +12°C° 0 mm 1 mps 667 mmHg 68%
    08:00 +14°C° 0 mm 1 mps 668 mmHg 63%
    09:00 +15°C° 0 mm 1 mps 669 mmHg 58%
    10:00 +16°C° 0 mm 2 mps 669 mmHg 58%
    11:00 +16°C° 0 mm 2 mps 669 mmHg 58%
    12:00 +17°C° 0 mm 3 mps 669 mmHg 58%
    13:00 +16°C° 0.1 mm 2 mps 669 mmHg 61%
    14:00 +16°C° 0.1 mm 2 mps 668 mmHg 64%
    15:00 +15°C° 0.1 mm 2 mps 668 mmHg 68%
    16:00 +14°C° 0.1 mm 1 mps 668 mmHg 75%
    17:00 +12°C° 0.1 mm 1 mps 668 mmHg 82%
    18:00 +10°C° 0.1 mm 0 mps 667 mmHg 89%
    19:00 +10°C° 0 mm 0 mps 667 mmHg 89%
    20:00 +9°C° 0 mm 0 mps 668 mmHg 89%
    21:00 +9°C° 0 mm 0 mps 668 mmHg 89%
    22:00 +9°C° 0 mm 0 mps 668 mmHg 89%
    23:00 +9°C° 0 mm 0 mps 668 mmHg 89%

    Day after tomorrow, 21 October, Monday

    Time Temperature Precipitation Wind Pressure Humidity
    00:00 +8°C° 0 mm 0 mps 667 mmHg 88%
    01:00 +8°C° 0 mm 0 mps 667 mmHg 88%
    02:00 +8°C° 0 mm 0 mps 667 mmHg 87%
    03:00 +8°C° 0 mm 0 mps 667 mmHg 87%
    04:00 +8°C° 0 mm 0 mps 667 mmHg 86%
    05:00 +8°C° 0 mm 0 mps 667 mmHg 85%
    06:00 +7°C° 0 mm 0 mps 667 mmHg 84%
    07:00 +10°C° 0 mm 1 mps 668 mmHg 78%
    08:00 +12°C° 0 mm 1 mps 668 mmHg 72%
    09:00 +13°C° 0 mm 1 mps 669 mmHg 65%
    10:00 +14°C° 0 mm 2 mps 669 mmHg 64%
    11:00 +15°C° 0 mm 2 mps 669 mmHg 62%
    12:00 +14°C° 0 mm 3 mps 669 mmHg 61%
    13:00 +15°C° 0 mm 2 mps 669 mmHg 63%
    14:00 +14°C° 0 mm 2 mps 669 mmHg 66%
    15:00 +14°C° 0 mm 2 mps 668 mmHg 69%
    16:00 +12°C° 0 mm 1 mps 668 mmHg 76%
    17:00 +11°C° 0 mm 1 mps 668 mmHg 82%
    18:00 +8°C° 0 mm 0 mps 667 mmHg 89%
    19:00 +8°C° 0 mm 0 mps 667 mmHg 89%
    20:00 +8°C° 0 mm 0 mps 667 mmHg 89%
    21:00 +8°C° 0 mm 0 mps 667 mmHg 89%
    22:00 +8°C° 0 mm 0 mps 667 mmHg 88%
    23:00 +8°C° 0 mm 0 mps 667 mmHg 88%

    22 October, Tuesday

    Time Temperature Precipitation Wind Pressure Humidity
    00:00 +7°C° 0 mm 0 mps 667 mmHg 88%
    01:00 +7°C° 0 mm 0 mps 666 mmHg 87%
    02:00 +7°C° 0 mm 0 mps 666 mmHg 86%
    03:00 +7°C° 0 mm 0 mps 666 mmHg 85%
    04:00 +7°C° 0 mm 0 mps 666 mmHg 85%
    05:00 +7°C° 0 mm 0 mps 666 mmHg 84%
    06:00 +7°C° 0 mm 0 mps 666 mmHg 83%
    07:00 +9°C° 0 mm 1 mps 667 mmHg 78%
    08:00 +11°C° 0 mm 1 mps 667 mmHg 73%
    09:00 +13°C° 0 mm 1 mps 668 mmHg 68%
    10:00 +13°C° 0 mm 2 mps 668 mmHg 66%
    11:00 +14°C° 0 mm 2 mps 668 mmHg 64%
    12:00 +15°C° 0 mm 2 mps 668 mmHg 63%
    13:00 +14°C° 0 mm 2 mps 668 mmHg 65%
    14:00 +14°C° 0 mm 2 mps 668 mmHg 68%
    15:00 +13°C° 0 mm 2 mps 668 mmHg 71%
    16:00 +12°C° 0 mm 1 mps 667 mmHg 77%
    17:00 +11°C° 0 mm 1 mps 667 mmHg 84%
    18:00 +8°C° 0 mm 0 mps 667 mmHg 90%
    19:00 +8°C° 0 mm 0 mps 667 mmHg 90%
    20:00 +8°C° 0 mm 0 mps 667 mmHg 90%
    21:00 +8°C° 0 mm 0 mps 667 mmHg 89%
    22:00 +8°C° 0 mm 0 mps 667 mmHg 88%
    23:00 +8°C° 0 mm 0 mps 667 mmHg 88%

    23 October, Wednesday

    Time Temperature Precipitation Wind Pressure Humidity
    00:00 +8°C° 0 mm 0 mps 666 mmHg 87%
    01:00 +7°C° 0 mm 0 mps 666 mmHg 85%
    02:00 +8°C° 0 mm 1 mps 666 mmHg 83%
    03:00 +8°C° 0 mm 1 mps 666 mmHg 81%
    04:00 +8°C° 0 mm 1 mps 666 mmHg 79%
    05:00 +7°C° 0 mm 0 mps 666 mmHg 78%
    06:00 +7°C° 0 mm 0 mps 666 mmHg 76%
    07:00 +10°C° 0 mm 1 mps 667 mmHg 71%
    08:00 +11°C° 0 mm 1 mps 667 mmHg 66%
    09:00 +13°C° 0 mm 1 mps 668 mmHg 60%
    10:00 +14°C° 0 mm 1 mps 668 mmHg 59%
    11:00 +15°C° 0 mm 2 mps 668 mmHg 59%
    12:00 +16°C° 0 mm 2 mps 668 mmHg 58%
    13:00 +15°C° 0 mm 2 mps 668 mmHg 60%
    14:00 +15°C° 0 mm 2 mps 668 mmHg 63%
    15:00 +15°C° 0 mm 2 mps 667 mmHg 65%
    16:00 +13°C° 0 mm 1 mps 667 mmHg 73%
    17:00 +11°C° 0 mm 1 mps 667 mmHg 81%
    18:00 +9°C° 0 mm 0 mps 667 mmHg 89%
    19:00 +8°C° 0 mm 0 mps 667 mmHg 88%
    20:00 +8°C° 0 mm 0 mps 667 mmHg 87%
    21:00 +8°C° 0 mm 0 mps 667 mmHg 86%
    22:00 +8°C° 0 mm 0 mps 667 mmHg 85%
    23:00 +8°C° 0 mm 0 mps 667 mmHg 84%

    24 October, Thursday

    Time Temperature Precipitation Wind Pressure Humidity
    00:00 +9°C° 0 mm 1 mps 667 mmHg 83%
    01:00 +9°C° 0 mm 1 mps 667 mmHg 81%
    02:00 +8°C° 0 mm 0 mps 667 mmHg 79%
    03:00 +8°C° 0 mm 0 mps 667 mmHg 77%
    04:00 +8°C° 0 mm 0 mps 666 mmHg 76%
    05:00 +8°C° 0 mm 1 mps 666 mmHg 74%
    06:00 +8°C° 0 mm 1 mps 666 mmHg 72%
    07:00 +10°C° 0 mm 1 mps 667 mmHg 67%
    08:00 +12°C° 0 mm 1 mps 668 mmHg 62%
    09:00 +14°C° 0 mm 1 mps 668 mmHg 57%
    10:00 +14°C° 0 mm 2 mps 668 mmHg 57%
    11:00 +15°C° 0 mm 2 mps 668 mmHg 57%
    12:00 +16°C° 0 mm 2 mps 668 mmHg 57%
    13:00 +15°C° 0 mm 2 mps 668 mmHg 60%
    14:00 +15°C° 0 mm 2 mps 668 mmHg 64%
    15:00 +15°C° 0 mm 2 mps 667 mmHg 68%
    16:00 +13°C° 0 mm 2 mps 667 mmHg 74%
    17:00 +12°C° 0 mm 1 mps 667 mmHg 81%
    18:00 +10°C° 0 mm 1 mps 666 mmHg 88%
    19:00 +9°C° 0 mm 0 mps 666 mmHg 87%
    20:00 +9°C° 0 mm 0 mps 667 mmHg 86%
    21:00 +9°C° 0 mm 0 mps 667 mmHg 86%
    22:00 +9°C° 0 mm 0 mps 666 mmHg 85%
    23:00 +8°C° 0 mm 0 mps 666 mmHg 84%
    Show more